Weather History for Houma, LA

Change the Weather History Date:

Friday, April 12, 2013

  Actual Average Record
Temperature  
Mean Temperature 65 °F -  
Max Temperature 80 °F 76 °F 89 °F (1965)
Min Temperature 50 °F 57 °F 39 °F (1951)
Growing Degree Days 15 (Base 50)    
Moisture  
Dew Point 48 °F    
Average Humidity 74    
Maximum Humidity 92    
Minimum Humidity 28    
Precipitation  
Precipitation 0.00 in - - ()
Sea Level Pressure  
Sea Level Pressure 29.93 in    
Wind  
Wind Speed 5 mph (NNW)    
Max Wind Speed 14 mph    
Max Gust Speed -    
Visibility 8 miles    
Events      
Averages and records for this station are not official NWS values.
T = Trace of Precipitation, MM = Missing Value Source: NWS Daily Summary

Daily Weather History Graph

Daily Weather History Graph

Search for Another Location

Airport:

Trip Planner

Search our weather history database for the weather conditions in past years. The results will help you decide how hot, cold, wet, or windy it might be!

Date:

Astronomy

Apr. 12, 2013 Rise Set
Actual Time 6:39 AM CDT 7:27 PM CDT
Civil Twilight 6:14 AM CDT 7:52 PM CDT
Nautical Twilight 5:46 AM CDT 8:20 PM CDT
Astronomical Twilight 5:17 AM CDT 8:50 PM CDT
Moon 7:58 AM CDT (4/12) 9:47 PM CDT (4/12)
Length of Visible Light 13h 37m
Length of Day
12h 48m
Waxing Crescent, 5% of the Moon is Illuminated
Apr 12
Waxing Crescent
Apr 18
First Quarter
Apr 25
Full
May 2
Last Quarter
May 9
New

Hourly Weather History & Observations

Time (CDT) Temp. Dew Point Humidity Pressure Visibility Wind Dir Wind Speed Gust Speed Precip Events Conditions
12:15 AM 54.5 °F 50.9 °F 88% 29.86 in 7.0 mi WNW 6.9 mph - N/A   Clear
12:35 AM 54.5 °F 50.9 °F 88% 29.87 in 7.0 mi WNW 6.9 mph - N/A   Clear
12:55 AM 53.8 °F 50.2 °F 88% 29.87 in 7.0 mi NW 4.6 mph - N/A   Clear
1:15 AM 53.6 °F 49.6 °F 86% 29.87 in 7.0 mi NW 3.5 mph - N/A   Clear
1:35 AM 52.0 °F 48.9 °F 89% 29.87 in 5.0 mi NW 3.5 mph - N/A   Clear
1:55 AM 52.7 °F 49.8 °F 90% 29.88 in 7.0 mi Calm Calm - N/A   Clear
2:15 AM 52.7 °F 49.6 °F 89% 29.88 in 7.0 mi Calm Calm - N/A   Clear
2:35 AM 52.5 °F 49.3 °F 89% 29.88 in 7.0 mi WNW 5.8 mph - N/A   Clear
2:55 AM 51.8 °F 49.1 °F 90% 29.88 in 7.0 mi WNW 4.6 mph - N/A   Clear
3:15 AM 52.2 °F 49.1 °F 89% 29.89 in 7.0 mi WNW 4.6 mph - N/A   Clear
3:35 AM 50.5 °F 47.8 °F 90% 29.89 in 5.0 mi NW 3.5 mph - N/A   Clear
3:55 AM 51.1 °F 47.8 °F 89% 29.89 in 7.0 mi NW 3.5 mph - N/A   Clear
4:15 AM 50.5 °F 47.7 °F 90% 29.89 in 7.0 mi NNW 3.5 mph - N/A   Clear
4:35 AM 50.2 °F 47.5 °F 90% 29.89 in 7.0 mi NNW 3.5 mph - N/A   Clear
4:55 AM 50.0 °F 47.3 °F 90% 29.89 in 5.0 mi NNW 4.6 mph - N/A   Clear
5:15 AM 50.0 °F 47.3 °F 90% 29.90 in 5.0 mi NW 5.8 mph - N/A   Clear
5:35 AM 50.9 °F 48.6 °F 92% 29.90 in 7.0 mi NNW 5.8 mph - N/A   Clear
5:50 AM 51.8 °F 48.2 °F 88% 29.90 in 7.0 mi North 9.2 mph - N/A   Clear
5:55 AM 50.5 °F 48.2 °F 92% 29.91 in 7.0 mi NW 4.6 mph - N/A   Clear
6:50 AM 50.0 °F 46.4 °F 87% 29.93 in 7.0 mi North 9.2 mph - N/A   Partly Cloudy
7:50 AM 53.6 °F 48.2 °F 82% 29.96 in 7.0 mi North 9.2 mph - N/A   Partly Cloudy
9:50 AM 62.6 °F 46.4 °F 55% 29.98 in 7.0 mi North 13.8 mph - N/A   Clear
10:50 AM 64.4 °F 46.4 °F 52% 29.99 in 7.0 mi North 13.8 mph - N/A   Clear
11:50 AM 53.6 °F 48.2 °F 82% 29.96 in 7.0 mi North 9.2 mph - N/A   Partly Cloudy
12:47 PM 80.6 °F 44.6 °F 28% 29.97 in 7.0 mi North 11.5 mph - N/A   Clear
1:50 PM 71.6 °F 41.0 °F 33% 29.96 in 7.0 mi NNW 11.5 mph - N/A   Clear
2:50 PM 73.4 °F 44.6 °F 36% 29.94 in 7.0 mi North 11.5 mph - N/A   Scattered Clouds
3:50 PM 73.4 °F 39.2 °F 29% 29.92 in 7.0 mi NNW 11.5 mph - N/A   Scattered Clouds
4:50 PM 73.4 °F 42.8 °F 33% 29.92 in 7.0 mi NNW 8.1 mph - N/A   Scattered Clouds
5:50 PM 73.4 °F 44.6 °F 36% 29.92 in 7.0 mi North 6.9 mph - N/A   Scattered Clouds
6:50 PM 73.4 °F 42.8 °F 33% 29.92 in 7.0 mi North 4.6 mph - N/A   Scattered Clouds
7:15 PM 69.8 °F 44.1 °F 39% 29.92 in 10.0 mi NNE 3.5 mph - N/A   Clear
7:35 PM 65.7 °F 48.6 °F 54% 29.94 in 10.0 mi ENE 3.5 mph - N/A   Clear
7:55 PM 64.4 °F 49.1 °F 58% 29.94 in 10.0 mi Calm Calm - N/A   Clear
8:15 PM 62.4 °F 49.5 °F 63% 29.94 in 10.0 mi Calm Calm - N/A   Clear
8:35 PM 61.0 °F 49.6 °F 66% 29.95 in 10.0 mi Calm Calm - N/A   Clear
8:55 PM 59.5 °F 50.0 °F 71% 29.95 in 7.0 mi Calm Calm - N/A   Clear
9:15 PM 58.5 °F 50.2 °F 74% 29.97 in 10.0 mi Calm Calm - N/A   Clear
9:35 PM 57.7 °F 51.4 °F 79% 29.97 in 10.0 mi Calm Calm - N/A   Clear
9:55 PM 57.9 °F 52.0 °F 81% 29.98 in 10.0 mi Calm Calm - N/A   Clear
10:15 PM 56.7 °F 51.8 °F 84% 29.98 in 10.0 mi Calm Calm - N/A   Clear
10:35 PM 56.7 °F 52.3 °F 85% 29.99 in 10.0 mi Calm Calm - N/A   Clear
10:55 PM 55.8 °F 51.1 °F 84% 29.99 in 7.0 mi Calm Calm - N/A   Clear
11:15 PM 55.4 °F 51.8 °F 88% 29.99 in 10.0 mi Calm Calm - N/A   Clear
11:35 PM 55.4 °F 52.0 °F 88% 29.99 in 7.0 mi Calm Calm - N/A   Clear
11:55 PM 55.4 °F 51.4 °F 87% 29.98 in 7.0 mi Calm Calm - N/A   Clear